Time,TemperatureF,DewpointF,PressureIn,WindDirection,WindDirectionDegrees,WindSpeedMPH,WindSpeedGustMPH,Humidity,HourlyPrecipIn,Conditions,Clouds,dailyrainin,SoftwareType,DateUTC
2013-04-04 00:29:00,47.4,46.0,30.01,ESE,121,0.0,0.0,95,0.00,,,0.00,Wunderground v.1.15,2013-04-04 07:29:00,
2013-04-04 00:59:00,47.8,45.9,30.01,WNW,284,1.0,6.0,93,0.00,,,0.00,Wunderground v.1.15,2013-04-04 07:59:00,
2013-04-04 01:29:00,47.9,44.8,30.01,North,10,3.0,3.0,89,0.00,,,0.00,Wunderground v.1.15,2013-04-04 08:29:00,
2013-04-04 01:59:00,47.3,45.4,30.01,West,274,1.0,1.0,93,0.23,,,0.06,Wunderground v.1.15,2013-04-04 08:59:00,
2013-04-04 02:29:00,47.0,45.6,30.00,ESE,121,0.0,0.0,95,0.08,,,0.11,Wunderground v.1.15,2013-04-04 09:29:00,
2013-04-04 02:59:00,47.1,46.3,30.00,South,186,0.0,0.0,97,0.26,,,0.17,Wunderground v.1.15,2013-04-04 09:59:00,
2013-04-04 03:29:00,46.9,46.1,30.00,SSW,198,0.0,0.0,97,0.06,,,0.22,Wunderground v.1.15,2013-04-04 10:29:00,
2013-04-04 03:59:00,46.8,46.3,29.99,SSE,167,1.0,1.0,98,0.00,,,0.23,Wunderground v.1.15,2013-04-04 10:59:00,
2013-04-04 04:29:00,47.0,46.5,30.00,SSE,167,0.0,0.0,98,0.32,,,0.30,Wunderground v.1.15,2013-04-04 11:29:00,
2013-04-04 04:59:00,46.7,46.2,29.99,SE,125,2.0,2.0,98,0.12,,,0.38,Wunderground v.1.15,2013-04-04 11:59:00,
2013-04-04 05:29:00,46.8,46.5,29.99,SE,127,0.0,1.0,99,0.05,,,0.43,Wunderground v.1.15,2013-04-04 12:29:00,
2013-04-04 05:59:00,47.2,46.9,29.99,SE,127,0.0,0.0,99,0.04,,,0.45,Wunderground v.1.15,2013-04-04 12:59:00,
2013-04-04 06:29:00,47.5,47.2,29.99,SE,126,0.0,0.0,99,0.07,,,0.48,Wunderground v.1.15,2013-04-04 13:29:00,
2013-04-04 06:59:00,48.2,47.9,30.00,SE,126,1.0,1.0,99,0.00,,,0.51,Wunderground v.1.15,2013-04-04 13:59:00,
2013-04-04 07:29:00,48.9,48.6,30.01,SE,126,1.0,1.0,99,0.00,,,0.51,Wunderground v.1.15,2013-04-04 14:29:00,
2013-04-04 07:59:00,49.8,49.5,30.02,SE,126,1.0,1.0,99,0.00,,,0.52,Wunderground v.1.15,2013-04-04 14:59:00,
2013-04-04 08:29:00,50.6,50.6,30.03,SE,126,1.0,1.0,100,0.00,,,0.52,Wunderground v.1.15,2013-04-04 15:29:00,
2013-04-04 08:59:00,51.2,51.2,30.04,SE,134,1.0,3.0,100,0.07,,,0.55,Wunderground v.1.15,2013-04-04 15:59:00,
2013-04-04 09:29:00,51.8,51.8,30.05,SSW,209,2.0,5.0,100,0.00,,,0.56,Wunderground v.1.15,2013-04-04 16:29:00,
2013-04-04 09:59:00,52.6,51.8,30.05,West,266,9.0,9.0,97,0.00,,,0.56,Wunderground v.1.15,2013-04-04 16:59:00,
2013-04-04 10:29:00,53.6,52.2,30.06,WNW,301,9.0,10.0,95,0.00,,,0.56,Wunderground v.1.15,2013-04-04 17:29:00,
2013-04-04 10:59:00,54.1,52.1,30.06,SSW,213,6.0,7.0,93,0.00,,,0.56,Wunderground v.1.15,2013-04-04 17:59:00,
2013-04-04 11:29:00,54.3,52.3,30.07,West,264,6.0,6.0,93,0.00,,,0.56,Wunderground v.1.15,2013-04-04 18:29:00,
2013-04-04 11:59:00,55.4,52.5,30.07,WSW,240,9.0,9.0,90,0.00,,,0.56,Wunderground v.1.15,2013-04-04 18:59:00,
2013-04-04 12:29:00,56.3,53.1,30.07,WSW,255,6.0,6.0,89,0.00,,,0.56,Wunderground v.1.15,2013-04-04 19:29:00,
2013-04-04 12:59:00,57.1,53.3,30.07,NNW,331,8.0,8.0,87,0.00,,,0.56,Wunderground v.1.15,2013-04-04 19:59:00,
2013-04-04 13:29:00,57.0,52.2,30.07,West,265,9.0,9.0,84,0.00,,,0.56,Wunderground v.1.15,2013-04-04 20:29:00,
2013-04-04 13:59:00,56.7,52.6,30.08,SW,217,7.0,7.0,86,0.00,,,0.56,Wunderground v.1.15,2013-04-04 20:59:00,
2013-04-04 14:29:00,56.4,51.9,30.08,WSW,252,6.0,8.0,85,0.00,,,0.56,Wunderground v.1.15,2013-04-04 21:29:00,
2013-04-04 14:59:00,56.2,52.1,30.08,WSW,248,7.0,7.0,86,0.00,,,0.56,Wunderground v.1.15,2013-04-04 21:59:00,
2013-04-04 15:29:00,56.6,52.5,30.08,West,277,4.0,4.0,86,0.00,,,0.56,Wunderground v.1.15,2013-04-04 22:29:00,
2013-04-04 15:59:00,56.6,52.5,30.08,WNW,282,5.0,6.0,86,0.00,,,0.56,Wunderground v.1.15,2013-04-04 22:59:00,
2013-04-04 16:29:00,56.4,52.6,30.08,WNW,284,6.0,6.0,87,0.00,,,0.56,Wunderground v.1.15,2013-04-04 23:29:00,
2013-04-04 16:59:00,56.0,52.8,30.08,WNW,288,6.0,6.0,89,0.00,,,0.56,Wunderground v.1.15,2013-04-04 23:59:00,
2013-04-04 17:30:00,55.6,52.4,30.08,WNW,302,3.0,3.0,89,0.00,,,0.56,Wunderground v.1.15,2013-04-05 00:30:00,
2013-04-04 17:59:00,55.4,52.2,30.07,NW,307,4.0,6.0,89,0.00,,,0.56,Wunderground v.1.15,2013-04-05 00:59:00,
2013-04-04 18:29:00,54.9,52.0,30.07,WNW,296,3.0,3.0,90,0.00,,,0.56,Wunderground v.1.15,2013-04-05 01:29:00,
2013-04-04 18:59:00,54.7,51.8,30.07,WNW,296,2.0,2.0,90,0.00,,,0.56,Wunderground v.1.15,2013-04-05 01:59:00,
2013-04-04 19:29:00,53.8,51.8,30.07,NW,317,3.0,3.0,93,0.00,,,0.56,Wunderground v.1.15,2013-04-05 02:29:00,
2013-04-04 19:59:00,52.8,51.7,30.08,North,356,2.0,2.0,96,0.00,,,0.56,Wunderground v.1.15,2013-04-05 02:59:00,
2013-04-04 20:29:00,52.5,51.4,30.08,WNW,294,2.0,6.0,96,0.00,,,0.57,Wunderground v.1.15,2013-04-05 03:29:00,
2013-04-04 20:59:00,52.3,51.2,30.08,West,278,5.0,5.0,96,0.00,,,0.57,Wunderground v.1.15,2013-04-05 03:59:00,
2013-04-04 21:29:00,52.3,51.5,30.10,WNW,302,1.0,1.0,97,0.00,,,0.57,Wunderground v.1.15,2013-04-05 04:29:00,
2013-04-04 21:59:00,52.2,51.4,30.10,WNW,296,3.0,3.0,97,0.00,,,0.57,Wunderground v.1.15,2013-04-05 04:59:00,
2013-04-04 22:29:00,52.1,51.3,30.11,NW,315,0.0,0.0,97,0.00,,,0.57,Wunderground v.1.15,2013-04-05 05:29:00,
2013-04-04 22:59:00,52.0,51.2,30.11,NW,315,0.0,0.0,97,0.00,,,0.57,Wunderground v.1.15,2013-04-05 05:59:00,
2013-04-04 23:29:00,52.0,50.9,30.12,WNW,302,1.0,2.0,96,0.00,,,0.57,Wunderground v.1.15,2013-04-05 06:29:00,
2013-04-04 23:59:00,52.1,50.7,30.12,WNW,292,4.0,5.0,95,0.00,,,0.00,Wunderground v.1.15,2013-04-05 06:59:00,